When you browse on this site, cookies collect data to enhance your experience and personalize the content and advertising you see.
Visit our Privacy Policy to learn more. By continuing to use the site, you agree to this use of cookies and data.
  • In Latvia
  • List of Countries
  • For 7 days
  • Water Temperature
  • Weather Map
  • Weather Widgets
  • user-avatar
    Login

    Hourly Weather Hobart

    Today, 6 December, Friday

    Time Temperature Precipitation Wind Pressure Humidity
    00:00 +8°C° 0.1 mm 6 mps 733 mmHg 84%
    01:00 +8°C° 0.1 mm 6 mps 733 mmHg 82%
    02:00 +8°C° 0.1 mm 6 mps 733 mmHg 82%
    03:00 +8°C° 0.1 mm 6 mps 733 mmHg 82%
    04:00 +8°C° 0 mm 6 mps 732 mmHg 84%
    05:00 +8°C° 0.1 mm 6 mps 732 mmHg 82%
    06:00 +8°C° 0.1 mm 7 mps 733 mmHg 80%
    07:00 +8°C° 0.1 mm 7 mps 733 mmHg 78%
    08:00 +8°C° 0.4 mm 7 mps 733 mmHg 82%
    09:00 +7°C° 0.4 mm 6 mps 733 mmHg 85%
    10:00 +7°C° 0.4 mm 6 mps 733 mmHg 88%
    11:00 +7°C° 0.4 mm 6 mps 734 mmHg 88%
    12:00 +6°C° 0.4 mm 7 mps 734 mmHg 87%
    13:00 +6°C° 0.4 mm 7 mps 734 mmHg 87%
    14:00 +6°C° 0.7 mm 7 mps 735 mmHg 88%
    15:00 +7°C° 0.7 mm 6 mps 735 mmHg 90%
    16:00 +5°C° 0.7 mm 6 mps 735 mmHg 92%
    17:00 +5°C° 0.2 mm 6 mps 736 mmHg 90%
    18:00 +5°C° 0.2 mm 6 mps 737 mmHg 88%
    19:00 +5°C° 0.2 mm 6 mps 737 mmHg 86%
    20:00 +6°C° 0 mm 5 mps 738 mmHg 86%
    21:00 +6°C° 0 mm 5 mps 738 mmHg 86%
    22:00 +5°C° 0 mm 5 mps 738 mmHg 87%
    23:00 +5°C° 0 mm 5 mps 738 mmHg 86%

    Tomorrow, 7 December, Saturday

    Time Temperature Precipitation Wind Pressure Humidity
    00:00 +6°C° 0 mm 5 mps 738 mmHg 86%
    01:00 +5°C° 0 mm 6 mps 738 mmHg 85%
    02:00 +5°C° 0 mm 6 mps 738 mmHg 83%
    03:00 +5°C° 0 mm 6 mps 738 mmHg 80%
    04:00 +5°C° 0 mm 6 mps 738 mmHg 78%
    05:00 +7°C° 0.2 mm 6 mps 739 mmHg 80%
    06:00 +8°C° 0.2 mm 6 mps 739 mmHg 82%
    07:00 +9°C° 0.2 mm 6 mps 739 mmHg 84%
    08:00 +9°C° 0.6 mm 6 mps 739 mmHg 85%
    09:00 +10°C° 0.6 mm 5 mps 739 mmHg 87%
    10:00 +10°C° 0.6 mm 5 mps 740 mmHg 88%
    11:00 +10°C° 0.4 mm 5 mps 740 mmHg 87%
    12:00 +10°C° 0.4 mm 5 mps 740 mmHg 86%
    13:00 +12°C° 0.4 mm 5 mps 741 mmHg 85%
    14:00 +12°C° 0.1 mm 5 mps 741 mmHg 78%
    15:00 +13°C° 0.1 mm 6 mps 742 mmHg 72%
    16:00 +13°C° 0.1 mm 6 mps 742 mmHg 65%
    17:00 +13°C° 0 mm 5 mps 743 mmHg 68%
    18:00 +12°C° 0 mm 5 mps 744 mmHg 71%
    19:00 +11°C° 0 mm 4 mps 744 mmHg 73%
    20:00 +11°C° 0 mm 3 mps 745 mmHg 77%
    21:00 +10°C° 0 mm 3 mps 745 mmHg 80%
    22:00 +10°C° 0 mm 3 mps 746 mmHg 83%
    23:00 +10°C° 0 mm 2 mps 746 mmHg 84%

    Day after tomorrow, 8 December, Sunday

    Time Temperature Precipitation Wind Pressure Humidity
    00:00 +10°C° 0 mm 2 mps 747 mmHg 84%
    01:00 +10°C° 0 mm 2 mps 747 mmHg 85%
    02:00 +10°C° 0 mm 2 mps 747 mmHg 85%
    03:00 +9°C° 0 mm 2 mps 747 mmHg 86%
    04:00 +9°C° 0 mm 2 mps 748 mmHg 87%
    05:00 +10°C° 0 mm 2 mps 748 mmHg 81%
    06:00 +12°C° 0 mm 2 mps 749 mmHg 75%
    07:00 +14°C° 0 mm 2 mps 749 mmHg 70%
    08:00 +15°C° 0 mm 2 mps 750 mmHg 65%
    09:00 +16°C° 0 mm 2 mps 750 mmHg 60%
    10:00 +17°C° 0 mm 2 mps 750 mmHg 55%
    11:00 +18°C° 0 mm 2 mps 750 mmHg 54%
    12:00 +18°C° 0 mm 3 mps 750 mmHg 53%
    13:00 +19°C° 0 mm 3 mps 750 mmHg 52%
    14:00 +19°C° 0 mm 3 mps 750 mmHg 53%
    15:00 +18°C° 0 mm 3 mps 750 mmHg 55%
    16:00 +18°C° 0 mm 3 mps 750 mmHg 56%
    17:00 +17°C° 0 mm 2 mps 750 mmHg 63%
    18:00 +15°C° 0 mm 2 mps 750 mmHg 69%
    19:00 +14°C° 0 mm 2 mps 751 mmHg 76%
    20:00 +12°C° 0 mm 2 mps 751 mmHg 82%
    21:00 +10°C° 0 mm 2 mps 751 mmHg 88%
    22:00 +10°C° 0 mm 1 mps 751 mmHg 94%
    23:00 +9°C° 0 mm 2 mps 751 mmHg 94%

    9 December, Monday

    Time Temperature Precipitation Wind Pressure Humidity
    00:00 +9°C° 0 mm 2 mps 750 mmHg 95%
    01:00 +9°C° 0 mm 2 mps 750 mmHg 95%
    02:00 +9°C° 0 mm 2 mps 750 mmHg 93%
    03:00 +9°C° 0 mm 2 mps 749 mmHg 91%
    04:00 +10°C° 0 mm 2 mps 749 mmHg 90%
    05:00 +12°C° 0 mm 1 mps 749 mmHg 82%
    06:00 +14°C° 0 mm 1 mps 749 mmHg 75%
    07:00 +16°C° 0 mm 1 mps 749 mmHg 67%
    08:00 +18°C° 0 mm 1 mps 749 mmHg 62%
    09:00 +20°C° 0 mm 1 mps 749 mmHg 57%
    10:00 +21°C° 0 mm 1 mps 749 mmHg 52%
    11:00 +23°C° 0 mm 2 mps 748 mmHg 48%
    12:00 +24°C° 0 mm 3 mps 747 mmHg 43%
    13:00 +26°C° 0 mm 3 mps 746 mmHg 39%
    14:00 +26°C° 0 mm 3 mps 745 mmHg 39%
    15:00 +26°C° 0 mm 4 mps 744 mmHg 39%
    16:00 +27°C° 0 mm 4 mps 744 mmHg 39%
    17:00 +25°C° 0 mm 4 mps 743 mmHg 43%
    18:00 +23°C° 0 mm 4 mps 743 mmHg 46%
    19:00 +22°C° 0 mm 4 mps 743 mmHg 49%
    20:00 +20°C° 0 mm 3 mps 742 mmHg 53%
    21:00 +19°C° 0 mm 3 mps 742 mmHg 58%
    22:00 +17°C° 0 mm 2 mps 742 mmHg 62%
    23:00 +16°C° 0 mm 2 mps 741 mmHg 65%

    10 December, Tuesday

    Time Temperature Precipitation Wind Pressure Humidity
    00:00 +16°C° 0 mm 2 mps 741 mmHg 69%
    01:00 +15°C° 0 mm 2 mps 741 mmHg 72%
    02:00 +15°C° 0 mm 2 mps 741 mmHg 77%
    03:00 +14°C° 0 mm 2 mps 742 mmHg 81%
    04:00 +13°C° 0 mm 2 mps 742 mmHg 86%
    05:00 +14°C° 0 mm 2 mps 742 mmHg 80%
    06:00 +14°C° 0 mm 3 mps 743 mmHg 74%
    07:00 +15°C° 0 mm 4 mps 744 mmHg 68%
    08:00 +17°C° 0 mm 4 mps 744 mmHg 62%
    09:00 +18°C° 0 mm 4 mps 745 mmHg 55%
    10:00 +19°C° 0 mm 4 mps 745 mmHg 49%
    11:00 +19°C° 0 mm 4 mps 745 mmHg 45%
    12:00 +20°C° 0 mm 4 mps 745 mmHg 42%
    13:00 +20°C° 0 mm 5 mps 745 mmHg 39%
    14:00 +20°C° 0 mm 4 mps 745 mmHg 41%
    15:00 +20°C° 0 mm 4 mps 745 mmHg 42%
    16:00 +19°C° 0 mm 4 mps 745 mmHg 44%
    17:00 +18°C° 0 mm 4 mps 745 mmHg 49%
    18:00 +17°C° 0 mm 4 mps 746 mmHg 55%
    19:00 +14°C° 0 mm 4 mps 746 mmHg 60%
    20:00 +13°C° 0 mm 3 mps 746 mmHg 68%
    21:00 +12°C° 0 mm 2 mps 747 mmHg 76%
    22:00 +9°C° 0 mm 2 mps 747 mmHg 83%
    23:00 +9°C° 0 mm 2 mps 747 mmHg 86%

    11 December, Wednesday

    Time Temperature Precipitation Wind Pressure Humidity
    00:00 +8°C° 0 mm 2 mps 747 mmHg 89%
    01:00 +8°C° 0 mm 2 mps 747 mmHg 92%
    02:00 +9°C° 0 mm 1 mps 747 mmHg 90%
    03:00 +9°C° 0 mm 1 mps 747 mmHg 89%
    04:00 +9°C° 0 mm 1 mps 747 mmHg 88%
    05:00 +10°C° 0 mm 1 mps 747 mmHg 79%
    06:00 +12°C° 0 mm 1 mps 747 mmHg 70%
    07:00 +13°C° 0 mm 1 mps 747 mmHg 61%
    08:00 +15°C° 0 mm 1 mps 747 mmHg 55%
    09:00 +18°C° 0 mm 1 mps 748 mmHg 48%
    10:00 +19°C° 0 mm 1 mps 748 mmHg 42%
    11:00 +19°C° 0 mm 2 mps 747 mmHg 41%
    12:00 +19°C° 0 mm 2 mps 747 mmHg 40%
    13:00 +20°C° 0 mm 3 mps 747 mmHg 38%
    14:00 +19°C° 0 mm 3 mps 747 mmHg 43%
    15:00 +18°C° 0 mm 3 mps 746 mmHg 48%
    16:00 +17°C° 0 mm 3 mps 746 mmHg 53%
    17:00 +14°C° 0 mm 3 mps 746 mmHg 61%
    18:00 +12°C° 0 mm 3 mps 747 mmHg 69%
    19:00 +11°C° 0 mm 3 mps 747 mmHg 77%
    20:00 +10°C° 0 mm 2 mps 747 mmHg 79%
    21:00 +10°C° 0 mm 2 mps 747 mmHg 81%
    22:00 +10°C° 0 mm 1 mps 747 mmHg 83%
    23:00 +10°C° 0 mm 1 mps 746 mmHg 83%
    Show more